Sussex, NJ

6:46 PM EST on November 18, 2019 (GMT -0500)
Sussex

Weather History for KFWN - October, 2019

Change the Weather History Date:

Wednesday, October 23, 2019

  Actual Average Record
Temperature  
Mean Temperature 54 °F -  
Max Temperature 64 °F 62 °F 85 °F (1979)
Min Temperature 39 °F 32 °F 21 °F (1974)
Degree Days  
Heating Degree Days 12    
Growing Degree Days 4 (Base 50)    
Moisture  
Dew Point 46 °F    
Average Humidity 84    
Maximum Humidity 100    
Minimum Humidity 30    
Precipitation  
Precipitation 0.04 in - - ()
Sea Level Pressure  
Sea Level Pressure 29.89 in    
Wind  
Wind Speed 1 mph ()    
Max Wind Speed 12 mph    
Max Gust Speed 22 mph    
Visibility 4.9 miles    
Events Fog , Rain    
Averages and records for this station are not official NWS values.
T = Trace of Precipitation, MM = Missing Value Source: Averaged Metar Reports

Daily Weather History Graph

Daily Weather History Graph

Search for Another Location

Airport or City:

Astronomy

Oct. 23, 2019 Rise Set
Actual Time 7:18 AM EDT 6:06 PM EDT
Civil Twilight 6:50 AM EDT 6:34 PM EDT
Nautical Twilight 6:18 AM EDT 7:06 PM EDT
Astronomical Twilight 5:46 AM EDT 7:38 PM EDT
Moon 1:30 AM EDT (10/23) 3:58 PM EDT (10/23)
Length of Visible Light 11h 43m
Length of Day
10h 47m
Waning Crescent, 27% of the Moon is Illuminated
Oct 23
Waning Crescent
Oct 27
New
Nov 4
First Quarter
Nov 12
Full
Nov 19
Last Quarter

Hourly Weather History & Observations

Time (EDT) Temp. Windchill Dew Point Humidity Pressure Visibility Wind Dir Wind Speed Gust Speed Precip Events Conditions
12:03 AM 57.9 °F - 55.9 °F 93% 29.80 in 2.5 mi Calm Calm - 0.00 in Rain Light Rain
12:15 AM 57.9 °F - 55.9 °F 93% 29.80 in 1.8 mi Calm Calm - 0.02 in Rain Light Rain
12:22 AM 57.9 °F - 55.9 °F 93% 29.80 in 2.0 mi Calm Calm - 0.02 in Rain Light Rain
12:39 AM 57.9 °F - 57.0 °F 97% 29.81 in 3.0 mi Calm Calm - 0.04 in Rain Light Rain
12:53 AM 57.0 °F - 55.9 °F 96% 29.81 in 10.0 mi ESE 4.6 mph - 0.04 in   Overcast
1:04 AM 57.9 °F - 55.9 °F 93% 29.80 in 10.0 mi ESE 4.6 mph - N/A   Overcast
1:53 AM 57.0 °F - 55.9 °F 96% 29.80 in 10.0 mi Calm Calm - N/A   Overcast
2:14 AM 55.9 °F - 55.9 °F 100% 29.80 in 1.8 mi Calm Calm - 0.00 in Rain Light Rain
2:23 AM 57.0 °F - 55.9 °F 96% 29.80 in 3.0 mi Calm Calm - 0.00 in Rain Light Rain
2:33 AM 55.9 °F - 55.0 °F 97% 29.80 in 1.5 mi Calm Calm - 0.00 in   Overcast
2:35 AM 55.9 °F - 55.0 °F 97% 29.80 in 0.8 mi Calm Calm - 0.00 in   Overcast
2:43 AM 55.9 °F - 54.0 °F 93% 29.80 in 0.2 mi Calm Calm - 0.00 in Fog Fog
2:53 AM 55.0 °F - 54.0 °F 96% 29.80 in 0.2 mi Calm Calm - 0.00 in Fog , Rain Light Rain
3:53 AM 51.1 °F - 50.0 °F 96% 29.80 in 0.2 mi Calm Calm - 0.00 in Fog Fog
4:53 AM 50.0 °F - 48.0 °F 93% 29.83 in 0.2 mi Calm Calm - N/A Fog Fog
5:17 AM 48.0 °F - 46.9 °F 96% 29.83 in 1.0 mi Calm Calm - N/A   Overcast
5:24 AM 48.9 °F - 46.9 °F 93% 29.83 in 2.0 mi Calm Calm - N/A   Mostly Cloudy
5:30 AM 48.0 °F - 46.9 °F 96% 29.84 in 1.2 mi Calm Calm - N/A   Mostly Cloudy
5:39 AM 48.0 °F - 46.9 °F 96% 29.84 in 1.8 mi Calm Calm - N/A   Scattered Clouds
5:41 AM 48.0 °F - 46.9 °F 96% 29.84 in 4.0 mi Calm Calm - N/A   Scattered Clouds
5:53 AM 48.0 °F - 46.9 °F 96% 29.84 in 10.0 mi Variable 3.5 mph - N/A   Partly Cloudy
6:01 AM 46.9 °F - 46.0 °F 97% 29.85 in 1.8 mi Calm Calm - N/A   Clear
6:08 AM 48.9 °F - 46.9 °F 93% 29.85 in 3.0 mi Calm Calm - N/A   Clear
6:18 AM 46.9 °F - 46.0 °F 97% 29.85 in 1.5 mi Calm Calm - N/A   Clear
6:25 AM 46.9 °F - 46.0 °F 97% 29.86 in 0.8 mi Calm Calm - N/A   Mist
6:48 AM 46.4 °F - 46.4 °F 100% 29.87 in 1.2 mi Calm Calm - N/A   Partly Cloudy
6:53 AM 46.0 °F - 45.0 °F 96% 29.87 in 0.8 mi Calm Calm - N/A   Mist
7:05 AM 46.9 °F - 45.0 °F 93% 29.87 in 1.2 mi Calm Calm - N/A   Partly Cloudy
7:07 AM 46.9 °F - 45.0 °F 93% 29.87 in 2.5 mi Calm Calm - N/A   Partly Cloudy
7:12 AM 46.0 °F - 45.0 °F 96% 29.88 in 1.2 mi Calm Calm - N/A   Clear
7:17 AM 46.9 °F - 45.0 °F 93% 29.88 in 0.8 mi Calm Calm - N/A   Mist
7:53 AM 45.0 °F - 44.1 °F 97% 29.89 in 0.2 mi Calm Calm - N/A Fog Fog
8:30 AM 48.9 °F - 48.9 °F 100% 29.91 in 1.2 mi Calm Calm - N/A   Partly Cloudy
8:32 AM 50.0 °F - 48.9 °F 96% 29.91 in 2.0 mi Calm Calm - N/A   Partly Cloudy
8:40 AM 50.0 °F - 48.9 °F 96% 29.92 in 9.0 mi WSW 3.5 mph - N/A   Partly Cloudy
8:53 AM 51.1 °F - 51.1 °F 100% 29.93 in 10.0 mi South 3.5 mph - N/A   Partly Cloudy
9:53 AM 59.0 °F - 50.0 °F 72% 29.94 in 10.0 mi Variable 3.5 mph - N/A   Clear
10:53 AM 60.1 °F - 45.0 °F 57% 29.95 in 10.0 mi West 8.1 mph - N/A   Scattered Clouds
11:53 AM 61.0 °F - 39.9 °F 46% 29.95 in 10.0 mi West 9.2 mph - N/A   Clear
12:53 PM 62.1 °F - 33.1 °F 34% 29.96 in 10.0 mi West 10.4 mph 19.6 mph N/A   Partly Cloudy
1:53 PM 64.0 °F - 34.0 °F 33% 29.96 in 10.0 mi WSW 11.5 mph 21.9 mph N/A   Scattered Clouds
2:53 PM 64.0 °F - 34.0 °F 33% 29.95 in 10.0 mi NW 9.2 mph 20.7 mph N/A   Clear
3:53 PM 64.0 °F - 32.0 °F 30% 29.97 in 10.0 mi West 8.1 mph - N/A   Clear
4:53 PM 63.0 °F - 30.9 °F 30% 29.99 in 10.0 mi Variable 4.6 mph - N/A   Clear
5:53 PM 60.1 °F - 32.0 °F 35% 30.02 in 10.0 mi Variable 3.5 mph - N/A   Clear
6:53 PM 51.1 °F - 37.0 °F 59% 30.06 in 10.0 mi Calm Calm - N/A   Clear
7:53 PM 46.9 °F - 39.0 °F 74% 30.10 in 10.0 mi Calm Calm - N/A   Clear
8:53 PM 44.1 °F - 37.9 °F 79% 30.13 in 10.0 mi Calm Calm - N/A   Clear
9:53 PM 43.0 °F - 37.0 °F 80% 30.15 in 10.0 mi Calm Calm - N/A   Clear
11:53 PM 39.0 °F 35.7 °F 35.1 °F 86% 30.18 in 10.0 mi WSW 4.6 mph - 0.00 in Rain Light Rain